Flag Weather past 2 weeks in Kuching, Malaysia

Now
82 °F

Partly sunny.


Feels Like: 91 °F
Forecast: 76 / 90 °F
Wind: 3 mph from Southeast

Location: Kuching Airport

Current Time: Nov 24, 2014 at 1:21:29 PM

Latest Report: Nov 24, 2014 at 1:00 PM


Visibility: N/A

Pressure: 29.80 "Hg

Humidity: 84%

Dew point: 77 °F

Location of KuchingLocation

Historic Weather in Kuching — Graph

°F

Kuching temperature yesterday

Maximum temperature yesterday: 86 °F (at 12:30 PM)
Minimum temperature yesterday: 73 °F (at 9:00 AM)
Average temperature yesterday: 80 °F

Past Weeks' High & Low Weather Summary

 TemperatureHumidityPressure
High91 °F (Nov 11, 2:30 PM)100% (Nov 12, 5:30 AM)29.92 "Hg (Nov 12, 5:30 AM)
Low72 °F (Nov 13, 6:30 AM)56% (Nov 13, 12:30 PM)29.68 "Hg (Nov 16, 3:30 PM)
Average80 °F85%29.81 "Hg
* Reported Nov 9 12:00 Noon — Nov 24 12:00 Noon, Kuching, Weather by CustomWeather, © 2014

Note: Actual official high and low records may vary slightly from our data, if they occured in-between our weather recording intervals... More about our weather records

Advertising

Kuching weather history for previous 24 hours

 ConditionsComfort  
Time TempWeatherWind HumidityBarometerVisibility
12:00 PM
Nov 24
81 °FBroken clouds.6 mph84%29.83 "HgN/A
11:30 AM79 °FLight rain. Broken clouds.5 mph89%29.83 "HgN/A
11:00 AM77 °FLight rain. Broken clouds.6 mph94%29.86 "Hg4 mi
10:30 AM77 °FLight rain. More clouds than sun.7 mph94%29.86 "Hg4 mi
10:00 AM77 °FLight rain. More clouds than sun.3 mph94%29.86 "Hg4 mi
9:30 AM77 °FRain. Mostly cloudy.5 mph94%29.86 "Hg1 mi
9:00 AM77 °FLight rain. Partly sunny.6 mph94%29.86 "Hg5 mi
8:30 AM77 °FLight rain. Partly sunny.No wind94%29.86 "Hg5 mi
7:30 AM77 °FBroken clouds.No wind89%29.83 "HgN/A
7:00 AM77 °FBroken clouds.3 mph89%29.80 "HgN/A
6:30 AM75 °FBroken clouds.1 mph94%29.77 "HgN/A
6:00 AM75 °FPartly cloudy.1 mph94%29.77 "HgN/A
5:30 AM75 °FPartly cloudy.1 mph94%29.77 "HgN/A
5:00 AM75 °FPartly cloudy.No wind94%29.77 "HgN/A
4:30 AM75 °FPartly cloudy.5 mph94%29.77 "HgN/A
4:00 AM77 °FPartly cloudy.2 mph89%29.77 "HgN/A
3:30 AM77 °FPartly cloudy.1 mph89%29.77 "HgN/A
3:00 AM77 °FPartly cloudy.2 mph89%29.77 "HgN/A
2:30 AM77 °FPassing clouds.3 mph89%29.77 "HgN/A
2:00 AM77 °FPassing clouds.3 mph89%29.80 "HgN/A
1:30 AM77 °FPassing clouds.No wind89%29.80 "HgN/A
1:00 AM77 °FPassing clouds.1 mph94%29.80 "HgN/A
12:30 AM77 °FPassing clouds.1 mph94%29.83 "HgN/A
12:00 AM77 °FPassing clouds.1 mph94%29.83 "HgN/A
11:30 PM
Nov 23
79 °FPassing clouds.5 mph89%29.83 "HgN/A
11:00 PM79 °FPassing clouds.3 mph89%29.83 "HgN/A
10:30 PM79 °FPassing clouds.5 mph89%29.83 "HgN/A
10:00 PM79 °FPassing clouds.3 mph89%29.83 "HgN/A
9:30 PM79 °FPassing clouds.3 mph89%29.83 "HgN/A
9:00 PM79 °FPassing clouds.2 mph89%29.80 "HgN/A
8:30 PM79 °FPassing clouds.5 mph89%29.80 "HgN/A
8:00 PM81 °FPassing clouds.5 mph84%29.80 "HgN/A
7:30 PM81 °FPassing clouds.3 mph84%29.77 "HgN/A
7:00 PM81 °FPartly cloudy.5 mph84%29.77 "HgN/A
6:30 PM81 °FPartly cloudy.6 mph84%29.77 "HgN/A
6:00 PM82 °FBroken clouds.9 mph79%29.74 "HgN/A
5:30 PM82 °FPartly sunny.8 mph79%29.74 "HgN/A
5:00 PM82 °FBroken clouds.10 mph79%29.74 "HgN/A
4:30 PM84 °FBroken clouds.9 mph74%29.74 "HgN/A
4:00 PM84 °FBroken clouds.9 mph79%29.74 "HgN/A
3:30 PM84 °FBroken clouds.12 mph79%29.74 "HgN/A
3:00 PM86 °FBroken clouds.10 mph75%29.74 "HgN/A
2:30 PM86 °FBroken clouds.9 mph75%29.77 "HgN/A
2:00 PM86 °FBroken clouds.12 mph75%29.77 "HgN/A
1:30 PM86 °FBroken clouds.9 mph75%29.80 "HgN/A
1:00 PM86 °FBroken clouds.9 mph75%29.80 "HgN/A
Weather by CustomWeather, © 2014

See weather overviewHow to use our weather pages